When you browse on this site, cookies collect data to enhance your experience and personalize the content and advertising you see.
Visit our Privacy Policy to learn more. By continuing to use the site, you agree to this use of cookies and data.
  • In France
  • List of Countries
  • For 7 days
  • Water Temperature
  • Satellite Maps
  • Weather Map
  • Weather Widgets
  • user-avatar
    Login

    Hourly Weather Berat

    Today, 21 April, Sunday

    Time Temperature Precipitation Wind Pressure Humidity
    00:00 +13°C° 0 mm 2 mps 751 mmHg 67%
    01:00 +12°C° 0 mm 2 mps 751 mmHg 66%
    02:00 +12°C° 0 mm 2 mps 751 mmHg 66%
    03:00 +12°C° 0 mm 2 mps 750 mmHg 66%
    04:00 +12°C° 0 mm 2 mps 750 mmHg 66%
    05:00 +13°C° 0 mm 2 mps 750 mmHg 65%
    06:00 +14°C° 0 mm 2 mps 750 mmHg 63%
    07:00 +15°C° 0 mm 1 mps 751 mmHg 62%
    08:00 +16°C° 0 mm 1 mps 750 mmHg 59%
    09:00 +18°C° 0 mm 2 mps 750 mmHg 55%
    10:00 +19°C° 0 mm 2 mps 750 mmHg 52%
    11:00 +20°C° 0 mm 2 mps 750 mmHg 52%
    12:00 +20°C° 0 mm 3 mps 750 mmHg 52%
    13:00 +20°C° 0 mm 3 mps 750 mmHg 52%
    14:00 +20°C° 0.2 mm 3 mps 749 mmHg 57%
    15:00 +19°C° 0.2 mm 3 mps 749 mmHg 62%
    16:00 +18°C° 0.2 mm 3 mps 748 mmHg 68%
    17:00 +17°C° 0.1 mm 2 mps 748 mmHg 75%
    18:00 +16°C° 0.1 mm 2 mps 748 mmHg 82%
    19:00 +14°C° 0.1 mm 1 mps 748 mmHg 90%
    20:00 +14°C° 0 mm 1 mps 748 mmHg 91%
    21:00 +14°C° 0 mm 1 mps 748 mmHg 91%
    22:00 +12°C° 0 mm 0 mps 749 mmHg 92%
    23:00 +12°C° 0 mm 0 mps 748 mmHg 92%

    Tomorrow, 22 April, Monday

    Time Temperature Precipitation Wind Pressure Humidity
    00:00 +12°C° 0 mm 0 mps 748 mmHg 92%
    01:00 +11°C° 0 mm 0 mps 748 mmHg 92%
    02:00 +11°C° 0 mm 0 mps 748 mmHg 91%
    03:00 +12°C° 0 mm 1 mps 747 mmHg 91%
    04:00 +12°C° 0 mm 1 mps 747 mmHg 90%
    05:00 +13°C° 0 mm 1 mps 747 mmHg 85%
    06:00 +14°C° 0 mm 1 mps 747 mmHg 80%
    07:00 +15°C° 0 mm 1 mps 746 mmHg 75%
    08:00 +17°C° 0 mm 2 mps 746 mmHg 68%
    09:00 +18°C° 0 mm 2 mps 746 mmHg 62%
    10:00 +19°C° 0 mm 2 mps 746 mmHg 56%
    11:00 +20°C° 0 mm 2 mps 746 mmHg 52%
    12:00 +23°C° 0 mm 2 mps 746 mmHg 49%
    13:00 +24°C° 0 mm 2 mps 745 mmHg 45%
    14:00 +23°C° 0 mm 2 mps 745 mmHg 46%
    15:00 +22°C° 0 mm 3 mps 745 mmHg 48%
    16:00 +22°C° 0 mm 3 mps 744 mmHg 50%
    17:00 +20°C° 1 mm 3 mps 744 mmHg 61%
    18:00 +18°C° 1 mm 2 mps 744 mmHg 72%
    19:00 +16°C° 1 mm 2 mps 743 mmHg 83%
    20:00 +16°C° 0.2 mm 2 mps 744 mmHg 82%
    21:00 +16°C° 0.2 mm 2 mps 744 mmHg 81%
    22:00 +14°C° 0.2 mm 3 mps 744 mmHg 80%
    23:00 +14°C° 0 mm 3 mps 744 mmHg 80%

    Day after tomorrow, 23 April, Tuesday

    Time Temperature Precipitation Wind Pressure Humidity
    00:00 +13°C° 0 mm 3 mps 743 mmHg 80%
    01:00 +13°C° 0 mm 3 mps 743 mmHg 80%
    02:00 +13°C° 0 mm 3 mps 743 mmHg 79%
    03:00 +13°C° 0 mm 3 mps 743 mmHg 78%
    04:00 +13°C° 0 mm 4 mps 742 mmHg 76%
    05:00 +14°C° 0 mm 4 mps 742 mmHg 72%
    06:00 +15°C° 0 mm 4 mps 742 mmHg 68%
    07:00 +18°C° 0 mm 4 mps 743 mmHg 64%
    08:00 +20°C° 0 mm 5 mps 743 mmHg 57%
    09:00 +21°C° 0 mm 6 mps 743 mmHg 49%
    10:00 +23°C° 0 mm 8 mps 744 mmHg 41%
    11:00 +24°C° 0 mm 7 mps 744 mmHg 42%
    12:00 +24°C° 0 mm 7 mps 744 mmHg 43%
    13:00 +24°C° 0 mm 7 mps 744 mmHg 45%
    14:00 +23°C° 0 mm 7 mps 744 mmHg 48%
    15:00 +22°C° 0 mm 6 mps 744 mmHg 52%
    16:00 +21°C° 0 mm 6 mps 744 mmHg 55%
    17:00 +20°C° 0 mm 6 mps 744 mmHg 58%
    18:00 +19°C° 0 mm 5 mps 744 mmHg 60%
    19:00 +17°C° 0 mm 4 mps 745 mmHg 62%
    20:00 +17°C° 0 mm 4 mps 745 mmHg 64%
    21:00 +15°C° 0 mm 4 mps 746 mmHg 66%
    22:00 +14°C° 0 mm 3 mps 746 mmHg 68%
    23:00 +14°C° 0 mm 3 mps 746 mmHg 68%

    24 April, Wednesday

    Time Temperature Precipitation Wind Pressure Humidity
    00:00 +14°C° 0 mm 3 mps 746 mmHg 68%
    01:00 +14°C° 0 mm 3 mps 746 mmHg 69%
    02:00 +14°C° 0 mm 3 mps 746 mmHg 67%
    03:00 +14°C° 0 mm 3 mps 746 mmHg 66%
    04:00 +14°C° 0 mm 3 mps 746 mmHg 65%
    05:00 +16°C° 0 mm 2 mps 746 mmHg 63%
    06:00 +17°C° 0 mm 2 mps 746 mmHg 60%
    07:00 +19°C° 0 mm 2 mps 746 mmHg 58%
    08:00 +21°C° 0 mm 2 mps 747 mmHg 50%
    09:00 +24°C° 0 mm 2 mps 747 mmHg 42%
    10:00 +27°C° 0 mm 2 mps 747 mmHg 34%
    11:00 +27°C° 0 mm 2 mps 747 mmHg 34%
    12:00 +28°C° 0 mm 2 mps 747 mmHg 34%
    13:00 +28°C° 0 mm 2 mps 747 mmHg 34%
    14:00 +27°C° 0 mm 2 mps 747 mmHg 38%
    15:00 +27°C° 0 mm 2 mps 747 mmHg 42%
    16:00 +26°C° 0 mm 2 mps 747 mmHg 46%
    17:00 +24°C° 0 mm 2 mps 747 mmHg 54%
    18:00 +21°C° 0 mm 1 mps 747 mmHg 62%
    19:00 +19°C° 0 mm 1 mps 748 mmHg 70%
    20:00 +19°C° 0 mm 1 mps 748 mmHg 70%
    21:00 +19°C° 0 mm 1 mps 748 mmHg 70%
    22:00 +18°C° 0 mm 1 mps 749 mmHg 70%
    23:00 +18°C° 0 mm 1 mps 749 mmHg 70%

    25 April, Thursday

    Time Temperature Precipitation Wind Pressure Humidity
    00:00 +18°C° 0 mm 1 mps 749 mmHg 70%
    01:00 +16°C° 0 mm 1 mps 748 mmHg 69%
    02:00 +16°C° 0 mm 1 mps 748 mmHg 67%
    03:00 +16°C° 0 mm 2 mps 748 mmHg 65%
    04:00 +16°C° 0 mm 2 mps 748 mmHg 63%
    05:00 +17°C° 0 mm 2 mps 748 mmHg 61%
    06:00 +19°C° 0 mm 1 mps 749 mmHg 58%
    07:00 +21°C° 0 mm 1 mps 749 mmHg 55%
    08:00 +23°C° 0 mm 1 mps 749 mmHg 50%
    09:00 +24°C° 0 mm 1 mps 749 mmHg 44%
    10:00 +26°C° 0 mm 2 mps 749 mmHg 39%
    11:00 +27°C° 0 mm 1 mps 749 mmHg 40%
    12:00 +27°C° 0 mm 1 mps 749 mmHg 41%
    13:00 +27°C° 0 mm 1 mps 748 mmHg 42%
    14:00 +27°C° 0 mm 1 mps 748 mmHg 44%
    15:00 +26°C° 0 mm 1 mps 748 mmHg 46%
    16:00 +26°C° 0 mm 1 mps 747 mmHg 49%
    17:00 +24°C° 0 mm 1 mps 747 mmHg 57%
    18:00 +22°C° 0 mm 1 mps 747 mmHg 65%
    19:00 +20°C° 0 mm 1 mps 748 mmHg 73%
    20:00 +20°C° 0 mm 1 mps 748 mmHg 73%
    21:00 +19°C° 0 mm 1 mps 748 mmHg 73%
    22:00 +19°C° 0 mm 1 mps 748 mmHg 73%
    23:00 +19°C° 0 mm 1 mps 748 mmHg 73%

    26 April, Friday

    Time Temperature Precipitation Wind Pressure Humidity
    00:00 +19°C° 0 mm 1 mps 747 mmHg 73%
    01:00 +19°C° 0 mm 1 mps 747 mmHg 73%
    02:00 +18°C° 0 mm 1 mps 747 mmHg 72%
    03:00 +18°C° 0 mm 1 mps 747 mmHg 71%
    04:00 +18°C° 0 mm 1 mps 747 mmHg 70%
    05:00 +19°C° 0 mm 1 mps 747 mmHg 66%
    06:00 +21°C° 0 mm 1 mps 747 mmHg 62%
    07:00 +22°C° 0 mm 1 mps 747 mmHg 57%
    08:00 +24°C° 0 mm 1 mps 747 mmHg 52%
    09:00 +26°C° 0 mm 1 mps 747 mmHg 46%
    10:00 +27°C° 0 mm 1 mps 747 mmHg 41%
    11:00 +27°C° 0 mm 2 mps 746 mmHg 42%
    12:00 +28°C° 0 mm 3 mps 746 mmHg 43%
    13:00 +28°C° 0 mm 3 mps 746 mmHg 45%
    14:00 +27°C° 0 mm 3 mps 745 mmHg 48%
    15:00 +26°C° 0 mm 3 mps 745 mmHg 52%
    16:00 +26°C° 0 mm 2 mps 745 mmHg 56%
    17:00 +24°C° 0.1 mm 2 mps 745 mmHg 63%
    18:00 +22°C° 0.1 mm 1 mps 745 mmHg 71%
    19:00 +20°C° 0.1 mm 1 mps 745 mmHg 78%
    20:00 +20°C° 0 mm 1 mps 745 mmHg 79%
    21:00 +19°C° 0 mm 1 mps 745 mmHg 80%
    22:00 +19°C° 0 mm 1 mps 745 mmHg 81%
    23:00 +19°C° 0 mm 1 mps 745 mmHg 80%
    Show more